Location: Mahannah Oil Field
(37.4664°N, 96.6003°W)
Time: 17:24:56
(UTC+00:00)

Transit 2A Rocket - Pass Details

Date: 27 January 2021
Orbit: 594 x 908 km, 66.7° (Epoch: 05 March)

Event Time Altitude Azimuth Distance (km) Brightness Sun altitude
Rises 04:18:26 0° 311° (NW) 2,850 - -53.9°
Reaches altitude 10° 04:21:36 10° 286° (WNW) 1,929 - -54.4°
Maximum altitude 04:23:53 14° 254° (WSW) 1,668 - -54.9°
Drops below altitude 10° 04:26:09 10° 222° (SW) 1,927 - -55.3°
Sets 04:29:20 0° 197° (SSW) 2,848 - -55.8°
